Time,TemperatureF,DewpointF,PressureIn,WindDirection,WindDirectionDegrees,WindSpeedMPH,WindSpeedGustMPH,Humidity,HourlyPrecipIn,Conditions,Clouds,dailyrainin,SoftwareType,DateUTC
2013-09-13 00:02:00,39.7,32.5,30.15,ENE,60,0.0,0.0,75,0.00,,,0.00,VWS V14.01,2013-09-13 05:02:00,
2013-09-13 00:07:00,39.6,32.3,30.15,ENE,60,0.0,0.0,75,0.00,,,0.00,VWS V14.01,2013-09-13 05:07:00,
2013-09-13 00:12:00,39.4,32.1,30.15,ENE,60,0.0,0.0,75,0.00,,,0.00,VWS V14.01,2013-09-13 05:12:00,
2013-09-13 00:17:00,39.2,32.0,30.15,ENE,60,0.0,0.0,75,0.00,,,0.00,VWS V14.01,2013-09-13 05:17:00,
2013-09-13 00:22:00,39.2,32.0,30.15,ENE,60,0.0,0.0,75,0.00,,,0.00,VWS V14.01,2013-09-13 05:22:00,
2013-09-13 00:27:00,39.0,32.1,30.15,ENE,60,0.0,0.0,76,0.00,,,0.00,VWS V14.01,2013-09-13 05:27:00,
2013-09-13 00:32:00,38.8,31.9,30.15,ENE,60,0.0,0.0,76,0.00,,,0.00,VWS V14.01,2013-09-13 05:32:00,
2013-09-13 00:37:00,38.8,31.9,30.15,ENE,60,0.0,0.0,76,0.00,,,0.00,VWS V14.01,2013-09-13 05:37:00,
2013-09-13 00:42:00,38.7,31.8,30.15,ENE,60,0.0,0.0,76,0.00,,,0.00,VWS V14.01,2013-09-13 05:42:00,
2013-09-13 00:47:00,38.5,31.6,30.15,ENE,60,0.0,0.0,76,0.00,,,0.00,VWS V14.01,2013-09-13 05:47:00,
2013-09-13 00:52:00,38.3,31.4,30.15,ENE,60,0.0,0.0,76,0.00,,,0.00,VWS V14.01,2013-09-13 05:52:00,
2013-09-13 00:57:00,38.1,31.2,30.15,ENE,60,0.0,0.0,76,0.00,,,0.00,VWS V14.01,2013-09-13 05:57:00,
2013-09-13 01:03:00,37.9,31.1,30.15,ENE,60,0.0,0.0,76,0.00,,,0.00,VWS V14.01,2013-09-13 06:03:00,
2013-09-13 01:08:00,37.6,30.7,30.15,ENE,60,0.0,0.0,76,0.00,,,0.00,VWS V14.01,2013-09-13 06:08:00,
2013-09-13 01:13:00,37.6,30.7,30.15,ENE,60,0.0,0.0,76,0.00,,,0.00,VWS V14.01,2013-09-13 06:13:00,
2013-09-13 01:18:00,37.4,30.5,30.15,ENE,60,0.0,0.0,76,0.00,,,0.00,VWS V14.01,2013-09-13 06:18:00,
2013-09-13 01:23:00,37.4,30.9,30.15,ENE,60,0.0,0.0,77,0.00,,,0.00,VWS V14.01,2013-09-13 06:23:00,
2013-09-13 01:28:00,37.4,30.9,30.15,ENE,60,0.0,0.0,77,0.00,,,0.00,VWS V14.01,2013-09-13 06:28:00,
2013-09-13 01:33:00,37.2,30.7,30.15,ENE,60,0.0,0.0,77,0.00,,,0.00,VWS V14.01,2013-09-13 06:33:00,
2013-09-13 01:38:00,37.0,30.5,30.15,ENE,60,0.0,0.0,77,0.00,,,0.00,VWS V14.01,2013-09-13 06:38:00,
2013-09-13 01:43:00,37.0,30.5,30.15,ENE,60,0.0,0.0,77,0.00,,,0.00,VWS V14.01,2013-09-13 06:43:00,
2013-09-13 01:48:00,37.0,30.8,30.15,ENE,60,0.0,0.0,78,0.00,,,0.00,VWS V14.01,2013-09-13 06:48:00,
2013-09-13 01:53:00,37.0,30.8,30.15,ENE,60,0.0,0.0,78,0.00,,,0.00,VWS V14.01,2013-09-13 06:53:00,
2013-09-13 01:58:00,36.9,30.6,30.15,ENE,60,0.0,0.0,78,0.00,,,0.00,VWS V14.01,2013-09-13 06:58:00,
2013-09-13 02:03:00,36.9,30.3,30.15,ENE,60,0.0,0.0,77,0.00,,,0.00,VWS V14.01,2013-09-13 07:03:00,
2013-09-13 02:08:00,36.5,30.0,30.15,ENE,60,0.0,0.0,77,0.00,,,0.00,VWS V14.01,2013-09-13 07:08:00,
2013-09-13 02:13:00,36.3,30.1,30.15,ENE,60,0.0,0.0,78,0.00,,,0.00,VWS V14.01,2013-09-13 07:13:00,
2013-09-13 02:18:00,36.3,30.1,30.15,ENE,60,0.0,0.0,78,0.00,,,0.00,VWS V14.01,2013-09-13 07:18:00,
2013-09-13 02:23:00,36.3,30.1,30.15,ENE,60,0.0,0.0,78,0.00,,,0.00,VWS V14.01,2013-09-13 07:23:00,
2013-09-13 02:28:00,36.1,30.0,30.15,ENE,60,0.0,0.0,78,0.00,,,0.00,VWS V14.01,2013-09-13 07:28:00,
2013-09-13 02:33:00,36.1,30.0,30.15,ENE,60,0.0,0.0,78,0.00,,,0.00,VWS V14.01,2013-09-13 07:33:00,
2013-09-13 02:38:00,36.0,29.8,30.15,ENE,60,0.0,0.0,78,0.00,,,0.00,VWS V14.01,2013-09-13 07:38:00,
2013-09-13 02:43:00,36.0,29.8,30.15,ENE,60,0.0,0.0,78,0.00,,,0.00,VWS V14.01,2013-09-13 07:43:00,
2013-09-13 02:48:00,36.0,29.8,30.15,ENE,60,0.0,0.0,78,0.00,,,0.00,VWS V14.01,2013-09-13 07:48:00,
2013-09-13 02:53:00,35.8,29.6,30.15,ENE,60,0.0,0.0,78,0.00,,,0.00,VWS V14.01,2013-09-13 07:53:00,
2013-09-13 02:58:00,35.6,29.4,30.15,ENE,60,0.0,0.0,78,0.00,,,0.00,VWS V14.01,2013-09-13 07:58:00,
2013-09-13 03:03:00,35.6,29.4,30.15,ENE,60,0.0,0.0,78,0.00,,,0.00,VWS V14.01,2013-09-13 08:03:00,
2013-09-13 03:08:00,35.6,29.4,30.15,ENE,60,0.0,0.0,78,0.00,,,0.00,VWS V14.01,2013-09-13 08:08:00,
2013-09-13 03:13:00,35.4,29.6,30.15,ENE,60,0.0,0.0,79,0.00,,,0.00,VWS V14.01,2013-09-13 08:13:00,
2013-09-13 03:18:00,35.4,29.6,30.15,ENE,60,0.0,0.0,79,0.00,,,0.00,VWS V14.01,2013-09-13 08:18:00,
2013-09-13 03:23:00,35.4,29.6,30.15,ENE,60,0.0,0.0,79,0.00,,,0.00,VWS V14.01,2013-09-13 08:23:00,
2013-09-13 03:28:00,35.2,29.4,30.15,ENE,60,0.0,0.0,79,0.00,,,0.00,VWS V14.01,2013-09-13 08:28:00,
2013-09-13 03:33:00,35.2,29.4,30.15,ENE,60,0.0,0.0,79,0.00,,,0.00,VWS V14.01,2013-09-13 08:33:00,
2013-09-13 03:38:00,35.1,29.2,30.15,ENE,60,0.0,0.0,79,0.00,,,0.00,VWS V14.01,2013-09-13 08:38:00,
2013-09-13 03:43:00,35.1,29.2,30.15,ENE,60,0.0,0.0,79,0.00,,,0.00,VWS V14.01,2013-09-13 08:43:00,
2013-09-13 03:48:00,35.1,29.5,30.15,ENE,60,0.0,0.0,80,0.00,,,0.00,VWS V14.01,2013-09-13 08:48:00,
2013-09-13 03:53:00,35.1,29.5,30.15,SSW,196,0.0,0.0,80,0.00,,,0.00,VWS V14.01,2013-09-13 08:53:00,
2013-09-13 03:58:00,34.9,29.4,30.15,SSW,196,0.0,0.0,80,0.00,,,0.00,VWS V14.01,2013-09-13 08:58:00,
2013-09-13 04:03:00,34.9,29.4,30.15,SSW,196,0.0,0.0,80,0.00,,,0.00,VWS V14.01,2013-09-13 09:03:00,
2013-09-13 04:08:00,34.7,29.2,30.15,SSW,196,0.0,0.0,80,0.00,,,0.00,VWS V14.01,2013-09-13 09:08:00,
2013-09-13 04:13:00,34.5,29.0,30.15,SSW,196,0.0,0.0,80,0.00,,,0.00,VWS V14.01,2013-09-13 09:13:00,
2013-09-13 04:18:00,34.5,29.0,30.15,SSW,196,0.0,0.0,80,0.00,,,0.00,VWS V14.01,2013-09-13 09:18:00,
2013-09-13 04:23:00,34.5,29.0,30.15,SSW,196,0.0,0.0,80,0.00,,,0.00,VWS V14.01,2013-09-13 09:23:00,
2013-09-13 04:28:00,34.5,29.0,30.15,SSW,196,0.0,0.0,80,0.00,,,0.00,VWS V14.01,2013-09-13 09:28:00,
2013-09-13 04:33:00,34.5,29.0,30.15,SSW,196,0.0,0.0,80,0.00,,,0.00,VWS V14.01,2013-09-13 09:33:00,
2013-09-13 04:38:00,34.5,29.3,30.15,SSW,196,0.0,0.0,81,0.00,,,0.00,VWS V14.01,2013-09-13 09:38:00,
2013-09-13 04:43:00,34.5,29.3,30.15,SSW,196,0.0,0.0,81,0.00,,,0.00,VWS V14.01,2013-09-13 09:43:00,
2013-09-13 04:48:00,34.3,29.1,30.15,SSW,196,0.0,0.0,81,0.00,,,0.00,VWS V14.01,2013-09-13 09:48:00,
2013-09-13 04:53:00,34.3,29.1,30.15,SSW,196,0.0,0.0,81,0.00,,,0.00,VWS V14.01,2013-09-13 09:53:00,
2013-09-13 04:58:00,34.3,29.1,30.15,SSW,196,0.0,0.0,81,0.00,,,0.00,VWS V14.01,2013-09-13 09:58:00,
2013-09-13 05:03:00,34.3,29.1,30.15,SSW,196,0.0,0.0,81,0.00,,,0.00,VWS V14.01,2013-09-13 10:03:00,
2013-09-13 05:08:00,34.3,29.1,30.15,SSW,196,0.0,0.0,81,0.00,,,0.00,VWS V14.01,2013-09-13 10:08:00,
2013-09-13 05:13:00,34.2,29.0,30.15,SSW,196,0.0,0.0,81,0.00,,,0.00,VWS V14.01,2013-09-13 10:13:00,
2013-09-13 05:18:00,34.2,29.0,30.15,SSW,196,0.0,0.0,81,0.00,,,0.00,VWS V14.01,2013-09-13 10:18:00,
2013-09-13 05:23:00,34.2,29.2,30.15,SSW,196,0.0,0.0,82,0.00,,,0.00,VWS V14.01,2013-09-13 10:23:00,
2013-09-13 05:28:00,34.2,29.2,30.15,SSW,196,0.0,0.0,82,0.00,,,0.00,VWS V14.01,2013-09-13 10:28:00,
2013-09-13 05:33:00,34.2,29.2,30.15,SSW,196,0.0,0.0,82,0.00,,,0.00,VWS V14.01,2013-09-13 10:33:00,
2013-09-13 05:38:00,34.2,29.2,30.15,SSW,196,0.0,0.0,82,0.00,,,0.00,VWS V14.01,2013-09-13 10:38:00,
2013-09-13 05:43:00,34.2,29.2,30.15,SSW,196,0.0,0.0,82,0.00,,,0.00,VWS V14.01,2013-09-13 10:43:00,
2013-09-13 05:48:00,34.2,29.2,30.15,SSW,196,0.0,0.0,82,0.00,,,0.00,VWS V14.01,2013-09-13 10:48:00,
2013-09-13 05:53:00,34.2,29.2,30.15,SSW,196,0.0,0.0,82,0.00,,,0.00,VWS V14.01,2013-09-13 10:53:00,
2013-09-13 05:58:00,34.2,29.2,30.15,SSW,196,0.0,0.0,82,0.00,,,0.00,VWS V14.01,2013-09-13 10:58:00,
2013-09-13 06:03:00,34.0,29.1,30.15,SSW,196,0.0,0.0,82,0.00,,,0.00,VWS V14.01,2013-09-13 11:03:00,
2013-09-13 06:08:00,34.0,29.1,30.15,SSW,196,0.0,0.0,82,0.00,,,0.00,VWS V14.01,2013-09-13 11:08:00,
2013-09-13 06:13:00,33.8,28.9,30.15,SSW,196,0.0,0.0,82,0.00,,,0.00,VWS V14.01,2013-09-13 11:13:00,
2013-09-13 06:18:00,33.8,28.9,30.15,SSW,196,0.0,0.0,82,0.00,,,0.00,VWS V14.01,2013-09-13 11:18:00,
2013-09-13 06:23:00,33.8,28.9,30.15,SSW,196,0.0,0.0,82,0.00,,,0.00,VWS V14.01,2013-09-13 11:23:00,
2013-09-13 06:28:00,33.8,29.2,30.15,SSW,196,0.0,0.0,83,0.00,,,0.00,VWS V14.01,2013-09-13 11:28:00,
2013-09-13 06:33:00,33.6,29.0,30.15,SSW,196,0.0,0.0,83,0.00,,,0.00,VWS V14.01,2013-09-13 11:33:00,
2013-09-13 06:38:00,33.4,28.8,30.15,SSW,196,0.0,0.0,83,0.00,,,0.00,VWS V14.01,2013-09-13 11:38:00,
2013-09-13 06:43:00,33.4,28.8,30.15,SSW,196,0.0,0.0,83,0.00,,,0.00,VWS V14.01,2013-09-13 11:43:00,
2013-09-13 06:48:00,33.4,28.8,30.15,SSW,196,0.0,0.0,83,0.00,,,0.00,VWS V14.01,2013-09-13 11:48:00,
2013-09-13 06:53:00,33.3,28.7,30.15,SSW,196,0.0,0.0,83,0.00,,,0.00,VWS V14.01,2013-09-13 11:53:00,
2013-09-13 06:58:00,33.3,28.7,30.15,SSW,196,0.0,0.0,83,0.00,,,0.00,VWS V14.01,2013-09-13 11:58:00,
2013-09-13 07:03:00,33.3,28.7,30.15,SSW,196,0.0,0.0,83,0.00,,,0.00,VWS V14.01,2013-09-13 12:03:00,
2013-09-13 07:08:00,33.3,29.0,30.15,SSW,196,0.0,0.0,84,0.00,,,0.00,VWS V14.01,2013-09-13 12:08:00,
2013-09-13 07:13:00,33.4,29.1,30.15,SSW,196,0.0,0.0,84,0.00,,,0.00,VWS V14.01,2013-09-13 12:13:00,
2013-09-13 07:18:00,33.6,29.3,30.15,SSW,196,0.0,0.0,84,0.00,,,0.00,VWS V14.01,2013-09-13 12:18:00,
2013-09-13 07:23:00,34.0,29.7,30.15,SSW,196,0.0,0.0,84,0.00,,,0.00,VWS V14.01,2013-09-13 12:23:00,
2013-09-13 07:28:00,34.0,29.7,30.15,SSW,196,0.0,0.0,84,0.00,,,0.00,VWS V14.01,2013-09-13 12:28:00,
2013-09-13 07:33:00,34.3,30.3,30.15,SSW,196,0.0,0.0,85,0.00,,,0.00,VWS V14.01,2013-09-13 12:33:00,
2013-09-13 07:38:00,35.2,31.5,30.15,SSW,196,0.0,0.0,86,0.00,,,0.00,VWS V14.01,2013-09-13 12:38:00,
2013-09-13 07:43:00,36.3,32.8,30.15,SSW,196,0.0,0.0,87,0.00,,,0.00,VWS V14.01,2013-09-13 12:43:00,
2013-09-13 07:48:00,36.9,33.4,30.15,SSW,196,0.0,0.0,87,0.00,,,0.00,VWS V14.01,2013-09-13 12:48:00,
2013-09-13 07:53:00,37.2,33.7,30.15,SSW,196,0.0,0.0,87,0.00,,,0.00,VWS V14.01,2013-09-13 12:53:00,
2013-09-13 07:58:00,37.8,34.2,30.15,SSW,196,0.0,0.0,87,0.00,,,0.00,VWS V14.01,2013-09-13 12:58:00,
2013-09-13 08:03:00,38.3,34.8,30.15,SSW,196,0.0,0.0,87,0.00,,,0.00,VWS V14.01,2013-09-13 13:03:00,
2013-09-13 08:08:00,39.4,35.8,30.15,SSW,196,0.0,0.0,87,0.00,,,0.00,VWS V14.01,2013-09-13 13:08:00,
2013-09-13 08:13:00,41.0,37.7,30.15,SSW,196,0.0,0.0,88,0.00,,,0.00,VWS V14.01,2013-09-13 13:13:00,
2013-09-13 08:18:00,42.4,39.7,30.15,SSW,196,0.0,0.0,90,0.00,,,0.00,VWS V14.01,2013-09-13 13:18:00,
2013-09-13 08:23:00,44.2,41.8,30.15,WSW,238,0.0,0.0,91,0.00,,,0.00,VWS V14.01,2013-09-13 13:23:00,
2013-09-13 08:28:00,45.3,42.6,30.15,WSW,238,0.0,0.0,90,0.00,,,0.00,VWS V14.01,2013-09-13 13:28:00,
2013-09-13 08:33:00,46.4,43.6,30.15,WSW,238,0.0,0.0,90,0.00,,,0.00,VWS V14.01,2013-09-13 13:33:00,
2013-09-13 08:38:00,46.9,44.2,30.15,WSW,238,0.0,0.0,90,0.00,,,0.00,VWS V14.01,2013-09-13 13:38:00,
2013-09-13 08:43:00,47.3,44.5,30.15,WSW,238,0.0,0.0,90,0.00,,,0.00,VWS V14.01,2013-09-13 13:43:00,
2013-09-13 08:48:00,48.2,45.4,30.15,WSW,238,0.0,0.0,90,0.00,,,0.00,VWS V14.01,2013-09-13 13:48:00,
2013-09-13 08:54:00,48.7,45.9,30.15,WSW,238,0.0,0.0,90,0.00,,,0.00,VWS V14.01,2013-09-13 13:54:00,
2013-09-13 08:59:00,49.1,46.6,30.15,WSW,238,0.0,0.0,91,0.00,,,0.00,VWS V14.01,2013-09-13 13:59:00,
2013-09-13 09:04:00,50.4,47.8,30.15,WSW,238,0.0,0.0,91,0.00,,,0.00,VWS V14.01,2013-09-13 14:04:00,
2013-09-13 09:09:00,50.7,48.2,30.15,WNW,295,0.0,0.0,91,0.00,,,0.00,VWS V14.01,2013-09-13 14:09:00,
2013-09-13 09:14:00,51.8,49.3,30.15,WNW,295,0.0,0.0,91,0.00,,,0.00,VWS V14.01,2013-09-13 14:14:00,
2013-09-13 09:19:00,52.3,49.8,30.15,WNW,295,0.0,0.0,91,0.00,,,0.00,VWS V14.01,2013-09-13 14:19:00,
2013-09-13 09:24:00,52.7,50.2,30.15,SW,234,0.0,0.0,91,0.00,,,0.00,VWS V14.01,2013-09-13 14:24:00,
2013-09-13 09:29:00,53.4,50.9,30.15,SW,220,0.0,0.0,91,0.00,,,0.00,VWS V14.01,2013-09-13 14:29:00,
2013-09-13 09:34:00,53.6,51.0,30.15,WSW,242,3.6,3.6,91,0.00,,,0.00,VWS V14.01,2013-09-13 14:34:00,
2013-09-13 09:39:00,53.8,48.4,30.15,WSW,241,0.0,0.0,82,0.00,,,0.00,VWS V14.01,2013-09-13 14:39:00,
2013-09-13 09:44:00,54.9,49.8,30.15,WSW,254,3.6,3.6,83,0.00,,,0.00,VWS V14.01,2013-09-13 14:44:00,
2013-09-13 09:49:00,55.4,48.7,30.15,SE,131,0.0,0.0,78,0.00,,,0.00,VWS V14.01,2013-09-13 14:49:00,
2013-09-13 09:54:00,55.9,48.8,30.15,WNW,301,0.0,0.0,77,0.00,,,0.00,VWS V14.01,2013-09-13 14:54:00,
2013-09-13 09:59:00,56.3,48.5,30.18,WNW,300,0.0,0.0,75,0.00,,,0.00,VWS V14.01,2013-09-13 14:59:00,
2013-09-13 10:04:00,56.3,47.4,30.18,NNW,336,2.7,2.7,72,0.00,,,0.00,VWS V14.01,2013-09-13 15:04:00,
2013-09-13 10:09:00,56.5,46.1,30.18,North,11,2.2,2.2,68,0.00,,,0.00,VWS V14.01,2013-09-13 15:09:00,
2013-09-13 10:14:00,56.8,41.8,30.18,North,0,2.7,2.7,57,0.00,,,0.00,VWS V14.01,2013-09-13 15:14:00,
2013-09-13 10:19:00,56.8,41.8,30.18,NNW,341,4.0,4.0,57,0.00,,,0.00,VWS V14.01,2013-09-13 15:19:00,
2013-09-13 10:24:00,57.0,39.1,30.18,West,275,0.0,0.0,51,0.00,,,0.00,VWS V14.01,2013-09-13 15:24:00,
2013-09-13 10:29:00,57.6,37.5,30.18,North,353,4.0,4.0,47,0.00,,,0.00,VWS V14.01,2013-09-13 15:29:00,
2013-09-13 10:34:00,57.6,37.5,30.18,NNW,348,0.0,0.0,47,0.00,,,0.00,VWS V14.01,2013-09-13 15:34:00,
2013-09-13 10:39:00,58.5,34.9,30.18,West,274,0.0,0.0,41,0.00,,,0.00,VWS V14.01,2013-09-13 15:39:00,
2013-09-13 10:44:00,58.6,35.6,30.18,WSW,258,0.0,0.0,42,0.00,,,0.00,VWS V14.01,2013-09-13 15:44:00,
2013-09-13 10:49:00,58.8,35.8,30.18,ESE,120,3.1,3.1,42,0.00,,,0.00,VWS V14.01,2013-09-13 15:49:00,
2013-09-13 10:54:00,59.2,35.5,30.18,South,186,4.5,4.5,41,0.00,,,0.00,VWS V14.01,2013-09-13 15:54:00,
2013-09-13 10:59:00,59.2,35.5,30.18,SW,225,2.2,2.7,41,0.00,,,0.00,VWS V14.01,2013-09-13 15:59:00,
2013-09-13 11:04:00,60.1,34.4,30.15,WSW,241,3.6,3.6,38,0.00,,,0.00,VWS V14.01,2013-09-13 16:04:00,
2013-09-13 11:09:00,59.9,34.9,30.15,WSW,246,7.6,7.6,39,0.00,,,0.00,VWS V14.01,2013-09-13 16:09:00,
2013-09-13 11:14:00,59.9,34.2,30.15,West,278,2.2,2.2,38,0.00,,,0.00,VWS V14.01,2013-09-13 16:14:00,
2013-09-13 11:19:00,59.7,33.4,30.15,NW,322,2.7,2.7,37,0.00,,,0.00,VWS V14.01,2013-09-13 16:19:00,
2013-09-13 11:24:00,59.9,33.6,30.15,North,357,2.7,3.6,37,0.00,,,0.00,VWS V14.01,2013-09-13 16:24:00,
2013-09-13 11:29:00,60.4,34.7,30.15,West,263,3.1,3.1,38,0.00,,,0.00,VWS V14.01,2013-09-13 16:29:00,
2013-09-13 11:34:00,60.6,34.2,30.15,NW,316,3.6,4.9,37,0.00,,,0.00,VWS V14.01,2013-09-13 16:34:00,
2013-09-13 11:39:00,60.6,33.5,30.15,NNE,20,0.0,0.0,36,0.00,,,0.00,VWS V14.01,2013-09-13 16:39:00,
2013-09-13 11:44:00,60.8,34.4,30.15,East,83,4.0,4.0,37,0.00,,,0.00,VWS V14.01,2013-09-13 16:44:00,
2013-09-13 11:49:00,61.0,33.9,30.15,ENE,76,4.5,5.4,36,0.00,,,0.00,VWS V14.01,2013-09-13 16:49:00,
2013-09-13 11:54:00,60.6,33.5,30.15,East,92,2.2,2.2,36,0.00,,,0.00,VWS V14.01,2013-09-13 16:54:00,
2013-09-13 11:59:00,60.8,33.7,30.15,NE,37,0.0,2.7,36,0.00,,,0.00,VWS V14.01,2013-09-13 16:59:00,
2013-09-13 12:04:00,61.0,33.2,30.15,West,267,4.9,5.4,35,0.00,,,0.00,VWS V14.01,2013-09-13 17:04:00,
2013-09-13 12:09:00,61.3,34.2,30.15,SSW,194,2.7,2.7,36,0.00,,,0.00,VWS V14.01,2013-09-13 17:09:00,
2013-09-13 12:14:00,61.3,34.2,30.15,West,261,4.0,4.0,36,0.00,,,0.00,VWS V14.01,2013-09-13 17:14:00,
2013-09-13 12:19:00,61.3,33.5,30.15,SW,220,2.7,2.7,35,0.00,,,0.00,VWS V14.01,2013-09-13 17:19:00,
2013-09-13 12:24:00,61.7,33.8,30.15,West,270,3.1,3.6,35,0.00,,,0.00,VWS V14.01,2013-09-13 17:24:00,
2013-09-13 12:29:00,61.9,33.2,30.15,WSW,255,3.1,3.1,34,0.00,,,0.00,VWS V14.01,2013-09-13 17:29:00,
2013-09-13 12:34:00,61.9,34.0,30.15,SE,129,0.0,0.0,35,0.00,,,0.00,VWS V14.01,2013-09-13 17:34:00,
2013-09-13 12:39:00,62.4,33.7,30.15,SSW,194,5.8,5.8,34,0.00,,,0.00,VWS V14.01,2013-09-13 17:39:00,
2013-09-13 12:44:00,62.2,33.5,30.15,West,281,3.6,3.6,34,0.00,,,0.00,VWS V14.01,2013-09-13 17:44:00,
2013-09-13 12:49:00,61.7,33.1,30.12,SW,234,0.0,0.0,34,0.00,,,0.00,VWS V14.01,2013-09-13 17:49:00,
2013-09-13 12:54:00,61.9,33.2,30.12,ESE,123,2.7,3.6,34,0.00,,,0.00,VWS V14.01,2013-09-13 17:54:00,
2013-09-13 12:59:00,61.9,33.2,30.12,South,186,4.9,5.8,34,0.00,,,0.00,VWS V14.01,2013-09-13 17:59:00,
2013-09-13 13:04:00,62.2,33.5,30.12,NE,43,3.6,3.6,34,0.00,,,0.00,VWS V14.01,2013-09-13 18:04:00,
2013-09-13 13:09:00,62.6,33.1,30.12,ENE,77,4.0,4.0,33,0.00,,,0.00,VWS V14.01,2013-09-13 18:09:00,
2013-09-13 13:14:00,62.6,32.3,30.12,NNW,337,3.1,3.1,32,0.00,,,0.00,VWS V14.01,2013-09-13 18:14:00,
2013-09-13 13:19:00,63.3,33.0,30.12,East,92,2.7,2.7,32,0.00,,,0.00,VWS V14.01,2013-09-13 18:19:00,
2013-09-13 13:24:00,63.1,31.2,30.12,ENE,59,0.0,0.0,30,0.00,,,0.00,VWS V14.01,2013-09-13 18:24:00,
2013-09-13 13:29:00,63.3,31.4,30.12,SE,129,4.0,4.0,30,0.00,,,0.00,VWS V14.01,2013-09-13 18:29:00,
2013-09-13 13:34:00,63.5,32.3,30.12,South,186,3.1,3.1,31,0.00,,,0.00,VWS V14.01,2013-09-13 18:34:00,
2013-09-13 13:39:00,63.9,31.0,30.12,ENE,77,2.7,2.7,29,0.00,,,0.00,VWS V14.01,2013-09-13 18:39:00,
2013-09-13 13:44:00,63.9,31.0,30.12,NE,50,5.4,5.4,29,0.00,,,0.00,VWS V14.01,2013-09-13 18:44:00,
2013-09-13 13:50:00,63.9,31.9,30.12,NE,35,5.4,5.4,30,0.00,,,0.00,VWS V14.01,2013-09-13 18:50:00,
2013-09-13 13:55:00,63.5,31.5,30.12,ESE,105,2.7,2.7,30,0.00,,,0.00,VWS V14.01,2013-09-13 18:55:00,
2013-09-13 14:00:00,63.3,31.4,30.12,ESE,111,3.6,3.6,30,0.00,,,0.00,VWS V14.01,2013-09-13 19:00:00,
2013-09-13 14:05:00,63.1,31.2,30.12,SE,129,3.6,3.6,30,0.00,,,0.00,VWS V14.01,2013-09-13 19:05:00,
2013-09-13 14:10:00,63.0,31.1,30.12,ESE,118,0.0,2.7,30,0.00,,,0.00,VWS V14.01,2013-09-13 19:10:00,
2013-09-13 14:15:00,62.6,30.8,30.12,SE,134,0.0,0.0,30,0.00,,,0.00,VWS V14.01,2013-09-13 19:15:00,
2013-09-13 14:20:00,62.6,30.8,30.12,ESE,122,3.1,3.1,30,0.00,,,0.00,VWS V14.01,2013-09-13 19:20:00,
2013-09-13 14:25:00,62.6,30.8,30.09,ENE,78,0.0,3.1,30,0.00,,,0.00,VWS V14.01,2013-09-13 19:25:00,
2013-09-13 14:30:00,62.8,30.9,30.09,South,175,0.0,0.0,30,0.00,,,0.00,VWS V14.01,2013-09-13 19:30:00,
2013-09-13 14:35:00,62.8,30.9,30.09,ENE,60,3.1,3.1,30,0.00,,,0.00,VWS V14.01,2013-09-13 19:35:00,
2013-09-13 14:40:00,62.6,30.8,30.09,ENE,70,0.0,0.0,30,0.00,,,0.00,VWS V14.01,2013-09-13 19:40:00,
2013-09-13 14:45:00,62.6,30.8,30.09,NNE,25,0.0,0.0,30,0.00,,,0.00,VWS V14.01,2013-09-13 19:45:00,
2013-09-13 14:50:00,62.6,30.8,30.09,ENE,58,0.0,0.0,30,0.00,,,0.00,VWS V14.01,2013-09-13 19:50:00,
2013-09-13 14:55:00,62.2,31.2,30.09,NE,50,0.0,0.0,31,0.00,,,0.00,VWS V14.01,2013-09-13 19:55:00,
2013-09-13 15:00:00,62.2,32.0,30.09,NE,37,0.0,0.0,32,0.00,,,0.00,VWS V14.01,2013-09-13 20:00:00,
2013-09-13 15:05:00,62.2,32.8,30.09,NE,42,2.7,2.7,33,0.00,,,0.00,VWS V14.01,2013-09-13 20:05:00,
2013-09-13 15:10:00,62.2,32.8,30.09,NNE,31,0.0,0.0,33,0.00,,,0.00,VWS V14.01,2013-09-13 20:10:00,
2013-09-13 15:15:00,62.1,32.6,30.09,NNE,31,0.0,0.0,33,0.00,,,0.00,VWS V14.01,2013-09-13 20:15:00,
2013-09-13 15:20:00,61.9,33.2,30.09,NNE,31,0.0,0.0,34,0.00,,,0.00,VWS V14.01,2013-09-13 20:20:00,
2013-09-13 15:25:00,61.9,33.2,30.06,NNE,31,0.0,0.0,34,0.00,,,0.00,VWS V14.01,2013-09-13 20:25:00,
2013-09-13 15:30:00,61.9,33.2,30.06,NNE,31,0.0,0.0,34,0.00,,,0.00,VWS V14.01,2013-09-13 20:30:00,
2013-09-13 15:35:00,61.9,33.2,30.06,NNE,31,0.0,0.0,34,0.00,,,0.00,VWS V14.01,2013-09-13 20:35:00,
2013-09-13 15:40:00,62.2,33.5,30.06,ENE,58,0.0,0.0,34,0.00,,,0.00,VWS V14.01,2013-09-13 20:40:00,
2013-09-13 15:45:00,62.2,33.5,30.06,NNE,29,3.1,3.1,34,0.00,,,0.00,VWS V14.01,2013-09-13 20:45:00,
2013-09-13 15:50:00,63.9,35.0,30.06,NE,49,4.0,4.0,34,0.00,,,0.00,VWS V14.01,2013-09-13 20:50:00,
2013-09-13 15:55:00,64.2,34.5,30.06,NNE,29,5.8,5.8,33,0.00,,,0.00,VWS V14.01,2013-09-13 20:55:00,
2013-09-13 16:00:00,64.2,33.0,30.06,ENE,78,4.0,4.0,31,0.00,,,0.00,VWS V14.01,2013-09-13 21:00:00,
2013-09-13 16:05:00,64.0,32.8,30.06,ESE,106,2.2,3.1,31,0.00,,,0.00,VWS V14.01,2013-09-13 21:05:00,
2013-09-13 16:10:00,64.0,32.8,30.06,ESE,123,0.0,0.0,31,0.00,,,0.00,VWS V14.01,2013-09-13 21:10:00,
2013-09-13 16:15:00,63.7,32.5,30.06,NE,44,0.0,0.0,31,0.00,,,0.00,VWS V14.01,2013-09-13 21:15:00,
2013-09-13 16:20:00,63.9,31.9,30.06,NW,306,3.1,3.1,30,0.00,,,0.00,VWS V14.01,2013-09-13 21:20:00,
2013-09-13 16:25:00,63.9,31.9,30.06,NW,311,0.0,2.7,30,0.00,,,0.00,VWS V14.01,2013-09-13 21:25:00,
2013-09-13 16:30:00,63.9,31.9,30.06,West,272,2.7,2.7,30,0.00,,,0.00,VWS V14.01,2013-09-13 21:30:00,
2013-09-13 16:35:00,63.9,31.9,30.06,NW,315,2.7,2.7,30,0.00,,,0.00,VWS V14.01,2013-09-13 21:35:00,
2013-09-13 16:40:00,63.7,31.7,30.06,NNW,337,0.0,0.0,30,0.00,,,0.00,VWS V14.01,2013-09-13 21:40:00,
2013-09-13 16:45:00,63.7,31.7,30.06,NW,316,3.6,3.6,30,0.00,,,0.00,VWS V14.01,2013-09-13 21:45:00,
2013-09-13 16:50:00,63.7,31.7,30.06,NE,49,0.0,0.0,30,0.00,,,0.00,VWS V14.01,2013-09-13 21:50:00,
2013-09-13 16:55:00,64.4,32.3,30.06,NNW,341,2.2,2.2,30,0.00,,,0.00,VWS V14.01,2013-09-13 21:55:00,
2013-09-13 17:00:00,64.6,31.6,30.06,NNW,329,3.1,3.1,29,0.00,,,0.00,VWS V14.01,2013-09-13 22:00:00,
2013-09-13 17:05:00,64.8,31.8,30.06,NNW,328,0.0,0.0,29,0.00,,,0.00,VWS V14.01,2013-09-13 22:05:00,
2013-09-13 17:10:00,64.9,32.0,30.06,NNE,28,3.1,3.1,29,0.00,,,0.00,VWS V14.01,2013-09-13 22:10:00,
2013-09-13 17:15:00,64.9,32.0,30.06,NNE,33,0.0,0.0,29,0.00,,,0.00,VWS V14.01,2013-09-13 22:15:00,
2013-09-13 17:20:00,64.9,32.0,30.06,ENE,57,0.0,0.0,29,0.00,,,0.00,VWS V14.01,2013-09-13 22:20:00,
2013-09-13 17:25:00,64.4,30.6,30.06,ENE,68,2.7,2.7,28,0.00,,,0.00,VWS V14.01,2013-09-13 22:25:00,
2013-09-13 17:30:00,64.2,31.3,30.06,ENE,67,2.2,2.2,29,0.00,,,0.00,VWS V14.01,2013-09-13 22:30:00,
2013-09-13 17:35:00,64.0,31.2,30.06,NE,42,0.0,0.0,29,0.00,,,0.00,VWS V14.01,2013-09-13 22:35:00,
2013-09-13 17:40:00,64.2,31.3,30.06,ENE,58,0.0,0.0,29,0.00,,,0.00,VWS V14.01,2013-09-13 22:40:00,
2013-09-13 17:45:00,64.2,31.3,30.03,NE,47,0.0,0.0,29,0.00,,,0.00,VWS V14.01,2013-09-13 22:45:00,
2013-09-13 17:50:00,64.2,32.2,30.03,ESE,123,0.0,0.0,30,0.00,,,0.00,VWS V14.01,2013-09-13 22:50:00,
2013-09-13 17:55:00,64.2,31.3,30.03,East,101,0.0,0.0,29,0.00,,,0.00,VWS V14.01,2013-09-13 22:55:00,
2013-09-13 18:00:00,64.0,32.8,30.03,ESE,120,3.1,3.1,31,0.00,,,0.00,VWS V14.01,2013-09-13 23:00:00,
2013-09-13 18:05:00,64.0,33.6,30.03,SE,126,0.0,2.2,32,0.00,,,0.00,VWS V14.01,2013-09-13 23:05:00,
2013-09-13 18:11:00,63.7,34.8,30.03,ESE,110,0.0,0.0,34,0.00,,,0.00,VWS V14.01,2013-09-13 23:11:00,
2013-09-13 18:16:00,63.5,33.9,30.03,ESE,117,0.0,0.0,33,0.00,,,0.00,VWS V14.01,2013-09-13 23:16:00,
2013-09-13 18:21:00,63.3,33.8,30.03,South,185,4.0,4.0,33,0.00,,,0.00,VWS V14.01,2013-09-13 23:21:00,
2013-09-13 18:26:00,63.0,34.2,30.03,SSE,164,0.0,0.0,34,0.00,,,0.00,VWS V14.01,2013-09-13 23:26:00,
2013-09-13 18:31:00,62.8,34.8,30.03,SSE,164,0.0,0.0,35,0.00,,,0.00,VWS V14.01,2013-09-13 23:31:00,
2013-09-13 18:36:00,62.1,35.5,30.03,SSE,164,0.0,0.0,37,0.00,,,0.00,VWS V14.01,2013-09-13 23:36:00,
2013-09-13 18:41:00,61.0,35.9,30.03,SSE,156,0.0,0.0,39,0.00,,,0.00,VWS V14.01,2013-09-13 23:41:00,
2013-09-13 18:46:00,60.3,37.1,30.03,SSW,193,0.0,0.0,42,0.00,,,0.00,VWS V14.01,2013-09-13 23:46:00,
2013-09-13 18:51:00,59.4,38.6,30.03,SSW,193,0.0,0.0,46,0.00,,,0.00,VWS V14.01,2013-09-13 23:51:00,
2013-09-13 18:56:00,58.6,37.9,30.03,SSE,154,0.0,0.0,46,0.00,,,0.00,VWS V14.01,2013-09-13 23:56:00,
2013-09-13 19:01:00,58.1,38.0,30.03,SSE,154,0.0,0.0,47,0.00,,,0.00,VWS V14.01,2013-09-14 00:01:00,
2013-09-13 19:06:00,57.6,37.5,30.03,SSE,154,0.0,0.0,47,0.00,,,0.00,VWS V14.01,2013-09-14 00:06:00,
2013-09-13 19:11:00,57.6,37.5,30.01,SSE,154,0.0,0.0,47,0.00,,,0.00,VWS V14.01,2013-09-14 00:11:00,
2013-09-13 19:16:00,56.5,36.5,30.01,SSE,154,0.0,0.0,47,0.00,,,0.00,VWS V14.01,2013-09-14 00:16:00,
2013-09-13 19:21:00,55.9,36.0,30.01,SSE,154,0.0,0.0,47,0.00,,,0.00,VWS V14.01,2013-09-14 00:21:00,
2013-09-13 19:26:00,55.2,35.9,30.01,SSE,154,0.0,0.0,48,0.00,,,0.00,VWS V14.01,2013-09-14 00:26:00,
2013-09-13 19:31:00,54.7,35.4,30.01,SSE,154,0.0,0.0,48,0.00,,,0.00,VWS V14.01,2013-09-14 00:31:00,
2013-09-13 19:36:00,54.1,34.9,30.01,SSE,154,0.0,0.0,48,0.00,,,0.00,VWS V14.01,2013-09-14 00:36:00,
2013-09-13 19:41:00,53.6,34.9,30.01,SSE,154,0.0,0.0,49,0.00,,,0.00,VWS V14.01,2013-09-14 00:41:00,
2013-09-13 19:46:00,53.1,34.9,30.01,SSE,154,0.0,0.0,50,0.00,,,0.00,VWS V14.01,2013-09-14 00:46:00,
2013-09-13 19:51:00,52.7,34.6,30.01,SSE,154,0.0,0.0,50,0.00,,,0.00,VWS V14.01,2013-09-14 00:51:00,
2013-09-13 19:56:00,52.2,34.6,30.01,SSE,154,0.0,0.0,51,0.00,,,0.00,VWS V14.01,2013-09-14 00:56:00,
2013-09-13 20:01:00,51.8,34.3,30.01,South,179,0.0,0.0,51,0.00,,,0.00,VWS V14.01,2013-09-14 01:01:00,
2013-09-13 20:06:00,51.6,36.0,30.01,South,178,0.0,0.0,55,0.00,,,0.00,VWS V14.01,2013-09-14 01:06:00,
2013-09-13 20:11:00,51.8,36.6,30.01,ESE,119,3.1,3.1,56,0.00,,,0.00,VWS V14.01,2013-09-14 01:11:00,
2013-09-13 20:16:00,52.3,38.0,30.01,South,170,3.1,3.1,58,0.00,,,0.00,VWS V14.01,2013-09-14 01:16:00,
2013-09-13 20:21:00,52.5,38.6,30.01,South,171,0.0,2.2,59,0.00,,,0.00,VWS V14.01,2013-09-14 01:21:00,
2013-09-13 20:26:00,52.7,38.3,30.01,ESE,109,0.0,2.7,58,0.00,,,0.00,VWS V14.01,2013-09-14 01:26:00,
2013-09-13 20:31:00,52.9,39.0,30.01,SSE,160,0.0,0.0,59,0.00,,,0.00,VWS V14.01,2013-09-14 01:31:00,
2013-09-13 20:36:00,52.9,39.0,30.01,SSE,153,0.0,0.0,59,0.00,,,0.00,VWS V14.01,2013-09-14 01:36:00,
2013-09-13 20:41:00,52.9,38.5,30.01,ESE,119,2.7,2.7,58,0.00,,,0.00,VWS V14.01,2013-09-14 01:41:00,
2013-09-13 20:46:00,52.9,38.5,30.01,SSE,148,2.7,2.7,58,0.00,,,0.00,VWS V14.01,2013-09-14 01:46:00,
2013-09-13 20:51:00,53.6,37.8,30.01,SE,142,2.7,2.7,55,0.00,,,0.00,VWS V14.01,2013-09-14 01:51:00,
2013-09-13 20:56:00,53.6,37.4,30.01,South,187,3.6,3.6,54,0.00,,,0.00,VWS V14.01,2013-09-14 01:56:00,
2013-09-13 21:01:00,53.8,37.1,30.01,SE,128,5.8,5.8,53,0.00,,,0.00,VWS V14.01,2013-09-14 02:01:00,
2013-09-13 21:06:00,53.8,36.6,30.01,ESE,112,3.1,3.1,52,0.00,,,0.00,VWS V14.01,2013-09-14 02:06:00,
2013-09-13 21:11:00,53.8,36.1,30.01,SSE,164,2.7,5.4,51,0.00,,,0.00,VWS V14.01,2013-09-14 02:11:00,
2013-09-13 21:16:00,53.6,35.9,30.01,South,178,3.1,3.1,51,0.00,,,0.00,VWS V14.01,2013-09-14 02:16:00,
2013-09-13 21:21:00,53.4,35.8,30.01,South,169,3.6,3.6,51,0.00,,,0.00,VWS V14.01,2013-09-14 02:21:00,
2013-09-13 21:27:00,53.1,35.4,30.01,South,177,2.7,3.6,51,0.00,,,0.00,VWS V14.01,2013-09-14 02:27:00,
2013-09-13 21:32:00,52.9,35.8,30.01,SSE,159,3.6,3.6,52,0.00,,,0.00,VWS V14.01,2013-09-14 02:32:00,
2013-09-13 21:37:00,52.5,35.9,30.01,SSE,164,4.0,4.0,53,0.00,,,0.00,VWS V14.01,2013-09-14 02:37:00,
2013-09-13 21:42:00,52.3,35.7,30.01,SW,216,4.9,4.9,53,0.00,,,0.00,VWS V14.01,2013-09-14 02:42:00,
2013-09-13 21:47:00,52.0,35.9,30.01,South,184,5.4,5.4,54,0.00,,,0.00,VWS V14.01,2013-09-14 02:47:00,
2013-09-13 21:52:00,51.8,35.7,30.01,South,191,0.0,4.0,54,0.00,,,0.00,VWS V14.01,2013-09-14 02:52:00,
2013-09-13 21:57:00,51.8,36.2,30.01,South,173,3.1,3.1,55,0.00,,,0.00,VWS V14.01,2013-09-14 02:57:00,
2013-09-13 22:02:00,51.8,36.2,30.01,SSW,211,3.1,3.1,55,0.00,,,0.00,VWS V14.01,2013-09-14 03:02:00,
2013-09-13 22:07:00,51.4,36.7,30.01,SW,217,3.6,3.6,57,0.00,,,0.00,VWS V14.01,2013-09-14 03:07:00,
2013-09-13 22:12:00,51.3,36.6,30.01,South,169,4.0,4.9,57,0.00,,,0.00,VWS V14.01,2013-09-14 03:12:00,
2013-09-13 22:17:00,51.1,36.8,30.01,South,177,2.7,2.7,58,0.00,,,0.00,VWS V14.01,2013-09-14 03:17:00,
2013-09-13 22:22:00,51.1,36.8,30.01,SSE,159,3.6,3.6,58,0.00,,,0.00,VWS V14.01,2013-09-14 03:22:00,
2013-09-13 22:27:00,51.3,37.0,29.98,SSW,199,5.4,5.4,58,0.00,,,0.00,VWS V14.01,2013-09-14 03:27:00,
2013-09-13 22:32:00,51.3,37.0,29.98,SSW,199,3.6,3.6,58,0.00,,,0.00,VWS V14.01,2013-09-14 03:32:00,
2013-09-13 22:37:00,51.4,36.7,29.98,SSE,156,4.0,5.8,57,0.00,,,0.00,VWS V14.01,2013-09-14 03:37:00,
2013-09-13 22:42:00,51.4,36.7,29.98,SSE,157,4.0,4.0,57,0.00,,,0.00,VWS V14.01,2013-09-14 03:42:00,
2013-09-13 22:47:00,51.4,36.3,29.98,South,176,4.0,4.0,56,0.00,,,0.00,VWS V14.01,2013-09-14 03:47:00,
2013-09-13 22:52:00,51.4,36.3,29.98,SSW,192,4.0,5.4,56,0.00,,,0.00,VWS V14.01,2013-09-14 03:52:00,
2013-09-13 22:57:00,51.4,36.7,29.98,South,176,6.3,6.3,57,0.00,,,0.00,VWS V14.01,2013-09-14 03:57:00,
2013-09-13 23:01:00,51.4,36.7,29.98,SSE,157,4.0,5.8,57,0.00,,,0.00,VWS V14.01,2013-09-14 04:01:00,
2013-09-13 23:02:00,51.4,36.7,29.98,SSW,193,3.1,3.1,57,0.00,,,0.00,VWS V14.01,2013-09-14 04:02:00,
2013-09-13 23:07:00,51.3,36.1,29.98,SSE,150,4.9,4.9,56,0.00,,,0.00,VWS V14.01,2013-09-14 04:07:00,
2013-09-13 23:12:00,51.3,36.1,29.98,SW,217,4.0,4.9,56,0.00,,,0.00,VWS V14.01,2013-09-14 04:12:00,
2013-09-13 23:17:00,51.4,36.7,29.98,SSE,163,4.5,4.5,57,0.00,,,0.00,VWS V14.01,2013-09-14 04:17:00,
2013-09-13 23:22:00,51.4,36.7,29.98,SW,226,4.9,4.9,57,0.00,,,0.00,VWS V14.01,2013-09-14 04:22:00,
2013-09-13 23:27:00,51.3,36.6,29.98,SW,214,4.0,4.0,57,0.00,,,0.00,VWS V14.01,2013-09-14 04:27:00,
2013-09-13 23:32:00,51.3,36.6,29.98,SSE,168,4.0,4.0,57,0.00,,,0.00,VWS V14.01,2013-09-14 04:32:00,
2013-09-13 23:37:00,50.9,36.7,29.98,South,180,2.7,2.7,58,0.00,,,0.00,VWS V14.01,2013-09-14 04:37:00,
2013-09-13 23:42:00,50.9,36.7,29.98,SSE,159,2.7,2.7,58,0.00,,,0.00,VWS V14.01,2013-09-14 04:42:00,
2013-09-13 23:47:00,50.7,36.9,29.98,SSE,165,4.9,4.9,59,0.00,,,0.00,VWS V14.01,2013-09-14 04:47:00,
2013-09-13 23:52:00,50.7,36.9,29.98,South,183,3.1,5.8,59,0.00,,,0.00,VWS V14.01,2013-09-14 04:52:00,
2013-09-13 23:57:00,50.5,37.2,29.98,SSW,194,3.1,3.1,60,0.00,,,0.00,VWS V14.01,2013-09-14 04:57:00,